Regional Weather Roundup
Issued by NWS

Home | Current Version | Previous Version | Text Only | Print | Product List | Glossary On
Versions: 1 2 3 4 5 6 7 8 9 10 11 12 13 14 15 16 17 18 19 20 21 22 23 24 25 26 27 28 29 30 31 32 33 34 35 36 37 38 39 40 41 42 43 44 45 46 47 48 49 50
000
ASUS43 KMKX 282300
RWRWI

WISCONSIN REGIONAL WEATHER ROUNDUP
NATIONAL WEATHER SERVICE MILWAUKEE/SULLIVAN WI
500 PM CST FRI NOV 28 2014

NOTE: "FAIR" INDICATES FEW OR NO CLOUDS BELOW 12,000 FEET WITH NO
SIGNIFICANT WEATHER AND/OR OBSTRUCTIONS TO VISIBILITY.

WIZ001-002-006>008-014>016-023>028-290000-
NORTHWEST WISCONSIN

CITY           SKY/WX    TMP DP  RH WIND       PRES   REMARKS
SUPERIOR ARPT  CLOUDY    18  12  77 CALM      29.91R
ASHLAND        CLOUDY    17  12  80 CALM      29.91F
HAYWARD        CLOUDY    17  11  77 SE5       29.86F WCI  10
SIREN          MOCLDY    18  12  77 SE6       29.86F WCI  10
CUMBERLAND     NOT AVBL
RICE LAKE      CLOUDY    19  13  78 E6        29.89R WCI  11
CHETEK         CLOUDY    19  13  78 CALM      29.88S
LADYSMITH      CLOUDY    19  14  81 SE6       29.89S WCI  10
EAU CLAIRE     NOT AVBL
MENOMONIE      CLOUDY    24  16  73 E6        29.87S WCI  17
NEW RICHMOND   CLOUDY    21  14  76 E6        29.87R WCI  13
OSCEOLA        CLOUDY    21  15  79 E8        29.88S WCI  11
$$

WIZ003>005-009-010-017-018-290000-
NORTH CENTRAL WISCONSIN

CITY           SKY/WX    TMP DP  RH WIND       PRES   REMARKS
MANITOWISH WTR CLOUDY    14  11  87 SE3       29.87S
ARBOR VITAE    MOCLDY    17  13  86 SE3       29.87S
WOODRUFF       MOCLDY    17  13  86 SE3       29.87S
RHINELANDER    CLOUDY    14  10  84 SE9       29.88F WCI   2
EAGLE RIVER    FLURRIES  14  10  81 CALM      29.88F
LAND O LAKES   CLOUDY    15  11  86 SE5       29.89S WCI   7
PHILLIPS       CLOUDY    15  11  84 SE5       29.86F WCI   8
TOMAHAWK       FLURRIES  15  12  85 CALM      29.89F
MEDFORD        CLOUDY    17  13  85 E5        29.87R WCI  10
MERRILL        CLOUDY    17  13  85 SE6       29.89F WCI   9
$$

WIZ029-030-035-036-043>047-290000-
CENTRAL WISCONSIN

CITY           SKY/WX    TMP DP  RH WIND       PRES   REMARKS
WAUSAU         CLOUDY    18  14  84 E7        29.90R WCI   9
MOSINEE        CLOUDY    18  18 100 E5        29.91R WCI  11
MARSHFIELD     CLOUDY    21  15  78 SE7       29.89R WCI  12
STEVENS POINT  CLOUDY    18  14  87 E6        29.91F WCI   9
WAUPACA        CLOUDY    24  18  78 E8        29.93F WCI  15
WAUTOMA        NOT AVBL
WISC RAPIDS    CLOUDY    23  16  74 SE6       29.92R WCI  16
CAMP DOUGLAS   NOT AVBL
$$

WIZ011>013-019>022-031-037>040-048>050-290000-
NORTHEAST WISCONSIN

CITY           SKY/WX    TMP DP  RH WIND       PRES   REMARKS
ANTIGO         CLOUDY    14  11  89 E7        29.90F WCI   4
SHAWANO        LGT SNOW  22  18  87 NE3       29.96F
OCONTO         CLOUDY    22  21  98 CALM      29.98F
STURGEON BAY   CLOUDY    21  18  86 E5        29.96F WCI  15
GREEN BAY      LGT SNOW  25  22  88 CALM      29.96S FOG
MANITOWOC      NOT AVBL
APPLETON       CLOUDY    25  18  74 SE3       29.94F
CLINTONVILLE   LGT SNOW  21  18  86 E3        29.95F
OSHKOSH        CLOUDY    26  19  74 MISG      29.93F
$$

WIZ032>034-041-042-053>061-290000-
SOUTHWEST WISCONSIN

CITY           SKY/WX    TMP DP  RH WIND       PRES   REMARKS
LA CROSSE      CLOUDY    28  20  71 SE3       29.89S
SPARTA         MIX PCPN  26  20  76 CALM      29.91R
VIROQUA        CLOUDY    24  19  82 SE8       29.86R WCI  15
BOSCOBEL       CLOUDY    28  20  71 CALM      29.91S
PRAIRIE DU CHI MOCLDY    29  20  70 E5        29.89R WCI  24
PLATTEVILLE    CLOUDY    28  24  83 CALM      29.88F
$$

WIZ056-057-062-063-064-067-068-290000-
SOUTH CENTRAL WISCONSIN

CITY           SKY/WX    TMP DP  RH WIND       PRES   REMARKS
REEDSBURG      MIX PCPN  25  20  79 SE6       29.88F WCI  18
BARABOO/DELLS  CLOUDY    25  19  79 S9        29.89F WCI  15
LONE ROCK      NOT AVBL
MINERAL POINT  MOCLDY    28  25  86 SE8       29.87S WCI  20
MADISON        CLOUDY    27  21  78 SE9       29.90F WCI  18
MIDDLETON      CLOUDY    28  22  77 SE9       29.89F WCI  20
WATERTOWN      CLOUDY    27  21  80 SE6       29.93F WCI  20
MONROE         MOCLDY    28  27  93 SE8       29.89F WCI  20
JANESVILLE     MOCLDY    30  25  80 SE8       29.92F WCI  23
$$

WIZ051-052-058>065-066-070>072-290000-
SOUTHEAST WISCONSIN

CITY           SKY/WX    TMP DP  RH WIND       PRES   REMARKS
MILWAUKEE      MOCLDY    29  19  66 S7        29.97F WCI  22
WAUKESHA       CLOUDY    25  16  68 SE12      29.98S WCI  14
MILWAUKEE/TIMM CLOUDY    28  18  64 S6        29.98F WCI  22
RACINE         CLOUDY    30  21  69 S8        29.99F WCI  22
BURLINGTON     CLOUDY    27  22  79 S7        29.96F WCI  20
KENOSHA        CLOUDY    30  22  72 S7        29.97F WCI  23
FOND DU LAC    CLOUDY    27  18  69 S7        29.94F WCI  19
SHEBOYGAN      CLOUDY    28  20  71 S10       29.96F WCI  19
WEST BEND      CLOUDY    28  19  69 SE5       29.95F WCI  23
JUNEAU         CLOUDY    26  19  77 SE8       29.94F WCI  17
$$

LSZ147-162-290000-
LAKE SUPERIOR

STATION/POSITION TIME  TEMP    WIND        PRES    WAVE
                       AIR SEA DIR/SP/G            HT/PER
                 (UTC) (F)     (DEG/KT/KT) (MB)    (FT/S)
DEVILS ISLAND    2200   20     130/  6/  9 1014.6F
PORT WING        2200   18     130/  3/  4 1013.2
SAXON HARBOR     2240   19        CALM     1013.2F
$$

LMZ867-665-643>646-290000-
LAKE MICHIGAN

STATION/POSITION TIME  TEMP    WIND        PRES    WAVE
                       AIR SEA DIR/SP/G            HT/PER
                 (UTC) (F)     (DEG/KT/KT) (MB)    (FT/S)
CHAMBERS ISLAND  2200   23      60/  6/  8 1015.9F
N MID LAKE BUOY  2150   28 42  110/  6/ 12 1017.7F   2/ 4
NORTHPORT PIER   2220   24      50/  5/  8 1015.9F
SISTER BAY       2213             CALM       N/A
ALGOMA LAKESHORE 2213          340/  7/  8   N/A
KEWAUNEE LAKESHO 2200   24      CALM  /  3 1014.5F
SHEBOYGAN LAKESH 2200   32 35  210/ 17/ 21 1016.1F
PORT WASHINGTON  2200   30     240/  5/ 10 1016.3S
MILWAUKEE LAKESH 2200   30     200/  9/ 12   N/A
S MID LAKE BUOY  2150   33 42  160/ 21/ 25 1016.7F   6/ 6
KENOSHA   LAKESH 2200   31     190/  9/ 14 1015.2F
$$

TC  - TEMPERATURE IN CELSIUS
VSB - VISIBILITY IN STATUTE MILES
WCI - WIND CHILL INDEX
HX  - HEAT INDEX



USA.gov is the U.S. government's official web portal to all federal, state and local government web resources and services.